Year,Month,Day,Hour,Minute,Value (Times are PST for temperature in C)
2016,07,13,00,00,16.60
2016,07,13,00,01,16.50
2016,07,13,00,02,16.40
2016,07,13,00,03,16.40
2016,07,13,00,04,16.40
2016,07,13,00,05,16.30
2016,07,13,00,06,16.30
2016,07,13,00,07,16.30
2016,07,13,00,08,16.30
2016,07,13,00,09,16.20
2016,07,13,00,10,16.20
2016,07,13,00,11,16.20
2016,07,13,00,12,16.20
2016,07,13,00,13,16.20
2016,07,13,00,14,16.10
2016,07,13,00,15,16.10
2016,07,13,00,16,16.10
2016,07,13,00,17,16.00
2016,07,13,00,18,16.00
2016,07,13,00,19,16.00
2016,07,13,00,20,16.00
2016,07,13,00,21,15.90
2016,07,13,00,22,15.90
2016,07,13,00,23,15.90
2016,07,13,00,24,15.90
2016,07,13,00,25,16.00
2016,07,13,00,26,16.00
2016,07,13,00,27,16.00
2016,07,13,00,28,16.10
2016,07,13,00,29,16.10
2016,07,13,00,30,16.10
2016,07,13,00,31,16.10
2016,07,13,00,32,16.20
2016,07,13,00,33,16.20
2016,07,13,00,34,16.20
2016,07,13,00,35,16.20
2016,07,13,00,36,16.20
2016,07,13,00,37,16.20
2016,07,13,00,38,16.20
2016,07,13,00,39,16.20
2016,07,13,00,40,16.20
2016,07,13,00,41,16.20
2016,07,13,00,42,16.20
2016,07,13,00,43,16.20
2016,07,13,00,44,16.20
2016,07,13,00,45,16.20
2016,07,13,00,46,16.20
2016,07,13,00,47,16.20
2016,07,13,00,48,16.20
2016,07,13,00,49,16.20
2016,07,13,00,50,16.20
2016,07,13,00,51,16.20
2016,07,13,00,52,16.20
2016,07,13,00,53,16.20
2016,07,13,00,54,16.20
2016,07,13,00,55,16.20
2016,07,13,00,56,16.20
2016,07,13,00,57,16.20
2016,07,13,00,58,16.20
2016,07,13,00,59,16.20
2016,07,13,01,00,16.20
2016,07,13,01,01,16.20
2016,07,13,01,02,16.20
2016,07,13,01,03,16.20
2016,07,13,01,04,16.10
2016,07,13,01,05,16.10
2016,07,13,01,06,16.10
2016,07,13,01,07,16.10
2016,07,13,01,08,16.20
2016,07,13,01,09,16.20
2016,07,13,01,10,16.20
2016,07,13,01,11,16.20
2016,07,13,01,12,16.20
2016,07,13,01,13,16.20
2016,07,13,01,14,16.20
2016,07,13,01,15,16.20
2016,07,13,01,16,16.20
2016,07,13,01,17,16.20
2016,07,13,01,18,16.20
2016,07,13,01,19,16.20
2016,07,13,01,20,16.20
2016,07,13,01,21,16.10
2016,07,13,01,22,16.10
2016,07,13,01,23,16.10
2016,07,13,01,24,16.10
2016,07,13,01,25,16.10
2016,07,13,01,26,16.10
2016,07,13,01,27,16.10
2016,07,13,01,28,16.10
2016,07,13,01,29,16.10
2016,07,13,01,30,16.10
2016,07,13,01,31,16.10
2016,07,13,01,32,16.10
2016,07,13,01,33,16.10
2016,07,13,01,34,16.10
2016,07,13,01,35,16.10
2016,07,13,01,36,16.10
2016,07,13,01,37,16.10
2016,07,13,01,38,16.10
2016,07,13,01,39,16.10
2016,07,13,01,40,16.10
2016,07,13,01,41,16.00
2016,07,13,01,42,16.00
2016,07,13,01,43,16.00
2016,07,13,01,44,16.00
2016,07,13,01,45,16.00
2016,07,13,01,46,16.00
2016,07,13,01,47,16.00
2016,07,13,01,48,16.00
2016,07,13,01,49,16.00
2016,07,13,01,50,16.00
2016,07,13,01,51,16.00
2016,07,13,01,52,16.00
2016,07,13,01,53,16.00
2016,07,13,01,54,16.00
2016,07,13,01,55,16.00
2016,07,13,01,56,16.00
2016,07,13,01,57,16.00
2016,07,13,01,58,16.00
2016,07,13,01,59,16.00
2016,07,13,02,00,16.00
2016,07,13,02,01,16.00
2016,07,13,02,02,16.00
2016,07,13,02,03,16.00
2016,07,13,02,04,16.00
2016,07,13,02,05,16.00
2016,07,13,02,06,15.90
2016,07,13,02,07,15.90
2016,07,13,02,08,15.90
2016,07,13,02,09,15.90
2016,07,13,02,10,15.90
2016,07,13,02,11,15.90
2016,07,13,02,12,15.90
2016,07,13,02,13,15.90
2016,07,13,02,14,15.90
2016,07,13,02,15,15.90
2016,07,13,02,16,15.90
2016,07,13,02,17,15.90
2016,07,13,02,18,15.90
2016,07,13,02,19,15.90
2016,07,13,02,20,15.90
2016,07,13,02,21,15.90
2016,07,13,02,22,15.90
2016,07,13,02,23,15.90
2016,07,13,02,24,15.90
2016,07,13,02,25,15.90
2016,07,13,02,26,15.90
2016,07,13,02,27,15.80
2016,07,13,02,28,15.80
2016,07,13,02,29,15.80
2016,07,13,02,30,15.80
2016,07,13,02,31,15.80
2016,07,13,02,32,15.80
2016,07,13,02,33,15.80
2016,07,13,02,34,15.80
2016,07,13,02,35,15.80
2016,07,13,02,36,15.70
2016,07,13,02,37,15.70
2016,07,13,02,38,15.70
2016,07,13,02,39,15.70
2016,07,13,02,40,15.70
2016,07,13,02,41,15.70
2016,07,13,02,42,15.70
2016,07,13,02,43,15.70
2016,07,13,02,44,15.60
2016,07,13,02,45,15.60
2016,07,13,02,46,15.50
2016,07,13,02,47,15.50
2016,07,13,02,48,15.40
2016,07,13,02,49,15.40
2016,07,13,02,50,15.40
2016,07,13,02,51,15.30
2016,07,13,02,52,15.30
2016,07,13,02,53,15.30
2016,07,13,02,54,15.30
2016,07,13,02,55,15.30
2016,07,13,02,56,15.30
2016,07,13,02,57,15.20
2016,07,13,02,58,15.20
2016,07,13,02,59,15.20
2016,07,13,03,00,15.20
2016,07,13,03,01,15.20
2016,07,13,03,02,15.20
2016,07,13,03,03,15.10
2016,07,13,03,04,15.10
2016,07,13,03,05,15.00
2016,07,13,03,06,15.00
2016,07,13,03,07,15.00
2016,07,13,03,08,15.10
2016,07,13,03,09,15.20
2016,07,13,03,10,15.20
2016,07,13,03,11,15.20
2016,07,13,03,12,15.20
2016,07,13,03,13,15.30
2016,07,13,03,14,15.30
2016,07,13,03,15,15.30
2016,07,13,03,16,15.30
2016,07,13,03,17,15.30
2016,07,13,03,18,15.40
2016,07,13,03,19,15.40
2016,07,13,03,20,15.40
2016,07,13,03,21,15.40
2016,07,13,03,22,15.40
2016,07,13,03,23,15.40
2016,07,13,03,24,15.40
2016,07,13,03,25,15.40
2016,07,13,03,26,15.40
2016,07,13,03,27,15.40
2016,07,13,03,28,15.40
2016,07,13,03,29,15.40
2016,07,13,03,30,15.40
2016,07,13,03,31,15.40
2016,07,13,03,32,15.40
2016,07,13,03,33,15.40
2016,07,13,03,34,15.30
2016,07,13,03,35,15.30
2016,07,13,03,36,15.30
2016,07,13,03,37,15.30
2016,07,13,03,38,15.30
2016,07,13,03,39,15.30
2016,07,13,03,40,15.30
2016,07,13,03,41,15.20
2016,07,13,03,42,15.20
2016,07,13,03,43,15.20
2016,07,13,03,44,15.20
2016,07,13,03,45,15.20
2016,07,13,03,46,15.10
2016,07,13,03,47,15.10
2016,07,13,03,48,15.10
2016,07,13,03,49,15.00
2016,07,13,03,50,15.00
2016,07,13,03,51,15.00
2016,07,13,03,52,15.00
2016,07,13,03,53,15.00
2016,07,13,03,54,15.00
2016,07,13,03,55,15.00
2016,07,13,03,56,15.00
2016,07,13,03,57,15.00
2016,07,13,03,58,15.00
2016,07,13,03,59,15.00
2016,07,13,04,00,14.90
2016,07,13,04,01,14.90
2016,07,13,04,02,15.00
2016,07,13,04,03,15.00
2016,07,13,04,04,15.00
2016,07,13,04,05,15.00
2016,07,13,04,06,15.00
2016,07,13,04,07,15.00
2016,07,13,04,08,15.00
2016,07,13,04,09,15.00
2016,07,13,04,10,15.00
2016,07,13,04,11,15.00
2016,07,13,04,12,15.00
2016,07,13,04,13,14.90
2016,07,13,04,14,14.90
2016,07,13,04,15,14.90
2016,07,13,04,16,14.90
2016,07,13,04,17,14.80
2016,07,13,04,18,14.80
2016,07,13,04,19,14.80
2016,07,13,04,20,14.90
2016,07,13,04,21,14.90
2016,07,13,04,22,14.90
2016,07,13,04,23,14.90
2016,07,13,04,24,15.00
2016,07,13,04,25,14.90
2016,07,13,04,26,14.90
2016,07,13,04,27,14.90
2016,07,13,04,28,14.90
2016,07,13,04,29,14.90
2016,07,13,04,30,14.80
2016,07,13,04,31,14.80
2016,07,13,04,32,14.80
2016,07,13,04,33,14.70
2016,07,13,04,34,14.70
2016,07,13,04,35,14.70
2016,07,13,04,36,14.70
2016,07,13,04,37,14.70
2016,07,13,04,38,14.60
2016,07,13,04,39,14.60
2016,07,13,04,40,14.60
2016,07,13,04,41,14.50
2016,07,13,04,42,14.40
2016,07,13,04,43,14.40
2016,07,13,04,44,14.30
2016,07,13,04,45,14.30
2016,07,13,04,46,14.30
2016,07,13,04,47,14.20
2016,07,13,04,48,14.20
2016,07,13,04,49,14.10
2016,07,13,04,50,14.10
2016,07,13,04,51,14.10
2016,07,13,04,52,14.00
2016,07,13,04,53,14.00
2016,07,13,04,54,13.90
2016,07,13,04,55,13.90
2016,07,13,04,56,13.80
2016,07,13,04,57,13.80
2016,07,13,04,58,13.80
2016,07,13,04,59,13.70
2016,07,13,05,00,13.70
2016,07,13,05,01,13.70
2016,07,13,05,02,13.70
2016,07,13,05,03,13.60
2016,07,13,05,04,13.60
2016,07,13,05,05,13.60
2016,07,13,05,06,13.60
2016,07,13,05,07,13.60
2016,07,13,05,08,13.60
2016,07,13,05,09,13.60
2016,07,13,05,10,13.60
2016,07,13,05,11,13.50
2016,07,13,05,12,13.50
2016,07,13,05,13,13.60
2016,07,13,05,14,13.50
2016,07,13,05,15,13.50
2016,07,13,05,16,13.60
2016,07,13,05,17,13.60
2016,07,13,05,18,13.60
2016,07,13,05,19,13.60
2016,07,13,05,20,13.60
2016,07,13,05,21,13.60
2016,07,13,05,22,13.60
2016,07,13,05,23,13.60
2016,07,13,05,24,13.60
2016,07,13,05,25,13.60
2016,07,13,05,26,13.60
2016,07,13,05,27,13.60
2016,07,13,05,28,13.60
2016,07,13,05,29,13.60
2016,07,13,05,30,13.60
2016,07,13,05,31,13.60
2016,07,13,05,32,13.60
2016,07,13,05,33,13.70
2016,07,13,05,34,13.70
2016,07,13,05,35,13.70
2016,07,13,05,36,13.70
2016,07,13,05,37,13.70
2016,07,13,05,38,13.70
2016,07,13,05,39,13.70
2016,07,13,05,40,13.70
2016,07,13,05,41,13.70
2016,07,13,05,42,13.70
2016,07,13,05,43,13.70
2016,07,13,05,44,13.70
2016,07,13,05,45,13.70
2016,07,13,05,46,13.70
2016,07,13,05,47,13.70
2016,07,13,05,48,13.70
2016,07,13,05,49,13.70
2016,07,13,05,50,13.70
2016,07,13,05,51,13.70
2016,07,13,05,52,13.70
2016,07,13,05,53,13.70
2016,07,13,05,54,13.70
2016,07,13,05,55,13.70
2016,07,13,05,56,13.70
2016,07,13,05,57,13.70
2016,07,13,05,58,13.70
2016,07,13,05,59,13.70
2016,07,13,06,00,13.70
2016,07,13,06,01,13.80
2016,07,13,06,02,13.80
2016,07,13,06,03,13.80
2016,07,13,06,04,13.80
2016,07,13,06,05,13.80
2016,07,13,06,06,13.80
2016,07,13,06,07,13.90
2016,07,13,06,08,13.90
2016,07,13,06,09,13.90
2016,07,13,06,10,13.90
2016,07,13,06,11,13.90
2016,07,13,06,12,13.90
2016,07,13,06,13,13.90
2016,07,13,06,14,13.90
2016,07,13,06,15,13.90
2016,07,13,06,16,13.90
2016,07,13,06,17,13.90
2016,07,13,06,18,13.90
2016,07,13,06,19,14.00
2016,07,13,06,20,14.00
2016,07,13,06,21,14.00
2016,07,13,06,22,14.00
2016,07,13,06,23,14.10
2016,07,13,06,24,14.10
2016,07,13,06,25,14.10
2016,07,13,06,26,14.10
2016,07,13,06,27,14.10
2016,07,13,06,28,14.10
2016,07,13,06,29,14.10
2016,07,13,06,30,14.10
2016,07,13,06,31,14.10
2016,07,13,06,32,14.20
2016,07,13,06,33,14.20
2016,07,13,06,34,14.20
2016,07,13,06,35,14.20
2016,07,13,06,36,14.20
2016,07,13,06,37,14.20
2016,07,13,06,38,14.20
2016,07,13,06,39,14.20
2016,07,13,06,40,14.20
2016,07,13,06,41,14.20
2016,07,13,06,42,14.20
2016,07,13,06,43,14.20
2016,07,13,06,44,14.20
2016,07,13,06,45,14.30
2016,07,13,06,46,14.30
2016,07,13,06,47,14.30
2016,07,13,06,48,14.30
2016,07,13,06,49,14.30
2016,07,13,06,50,14.30
2016,07,13,06,51,14.30
2016,07,13,06,52,14.40
2016,07,13,06,53,14.30
2016,07,13,06,54,14.30
2016,07,13,06,55,14.30
2016,07,13,06,56,14.30
2016,07,13,06,57,14.30
2016,07,13,06,58,14.30
2016,07,13,06,59,14.30
2016,07,13,07,00,14.40
2016,07,13,07,01,14.40
2016,07,13,07,02,14.40
2016,07,13,07,03,14.40
2016,07,13,07,04,14.40
2016,07,13,07,05,14.40
2016,07,13,07,06,14.40
2016,07,13,07,07,14.40
2016,07,13,07,08,14.40
2016,07,13,07,09,14.40
2016,07,13,07,10,14.40
2016,07,13,07,11,14.40
2016,07,13,07,12,14.40
2016,07,13,07,13,14.50
2016,07,13,07,14,14.50
2016,07,13,07,15,14.60
2016,07,13,07,16,14.60
2016,07,13,07,17,14.60
2016,07,13,07,18,14.60
2016,07,13,07,19,14.70
2016,07,13,07,20,14.70
2016,07,13,07,21,14.70
2016,07,13,07,22,14.80
2016,07,13,07,23,14.80
2016,07,13,07,24,14.80
2016,07,13,07,25,14.90
2016,07,13,07,26,14.90
2016,07,13,07,27,15.00
2016,07,13,07,28,15.00
2016,07,13,07,29,15.00
2016,07,13,07,30,15.00
2016,07,13,07,31,15.00
2016,07,13,07,32,15.00
2016,07,13,07,33,15.00
2016,07,13,07,34,15.00
2016,07,13,07,35,15.00
2016,07,13,07,36,15.00
2016,07,13,07,37,14.90
2016,07,13,07,38,14.80
2016,07,13,07,39,14.80
2016,07,13,07,40,14.80
2016,07,13,07,41,14.80
2016,07,13,07,42,14.70
2016,07,13,07,43,14.70
2016,07,13,07,44,14.70
2016,07,13,07,45,14.70
2016,07,13,07,46,14.70
2016,07,13,07,47,14.70
2016,07,13,07,48,14.70
2016,07,13,07,49,14.70
2016,07,13,07,50,14.70
2016,07,13,07,51,14.80
2016,07,13,07,52,14.80
2016,07,13,07,53,14.90
2016,07,13,07,54,15.00
2016,07,13,07,55,15.00
2016,07,13,07,56,15.00
2016,07,13,07,57,15.10
2016,07,13,07,58,15.20
2016,07,13,07,59,15.30
2016,07,13,08,00,15.40
2016,07,13,08,01,15.40
2016,07,13,08,02,15.50
2016,07,13,08,03,15.50
2016,07,13,08,04,15.60
2016,07,13,08,05,15.60
2016,07,13,08,06,15.60
2016,07,13,08,07,15.70
2016,07,13,08,08,15.60
2016,07,13,08,09,15.60
2016,07,13,08,10,15.60
2016,07,13,08,11,15.60
2016,07,13,08,12,15.60
2016,07,13,08,13,15.70
2016,07,13,08,14,15.70
2016,07,13,08,15,15.60
2016,07,13,08,16,15.60
2016,07,13,08,17,15.60
2016,07,13,08,18,15.60
2016,07,13,08,19,15.60
2016,07,13,08,20,15.60
2016,07,13,08,21,15.60
2016,07,13,08,22,15.70
2016,07,13,08,23,15.70
2016,07,13,08,24,15.70
2016,07,13,08,25,15.70
2016,07,13,08,26,15.70
2016,07,13,08,27,15.80
2016,07,13,08,28,15.80
2016,07,13,08,29,15.90
2016,07,13,08,30,15.90
2016,07,13,08,31,15.90
2016,07,13,08,32,16.00
2016,07,13,08,33,16.00
2016,07,13,08,34,16.10
2016,07,13,08,35,16.10
2016,07,13,08,36,16.20
2016,07,13,08,37,16.20
2016,07,13,08,38,16.20
2016,07,13,08,39,16.30
2016,07,13,08,40,16.30
2016,07,13,08,41,16.30
2016,07,13,08,42,16.30
2016,07,13,08,43,16.30
2016,07,13,08,44,16.30
2016,07,13,08,45,16.20
2016,07,13,08,46,16.20
2016,07,13,08,47,16.10
2016,07,13,08,48,16.00
2016,07,13,08,49,16.00
2016,07,13,08,50,15.90
2016,07,13,08,51,15.90
2016,07,13,08,52,15.90
2016,07,13,08,53,15.90
2016,07,13,08,54,16.00
2016,07,13,08,55,16.00
2016,07,13,08,56,16.10
2016,07,13,08,57,16.20
2016,07,13,08,58,16.20
2016,07,13,08,59,16.20
2016,07,13,09,00,16.30
2016,07,13,09,01,16.30
2016,07,13,09,02,16.40
2016,07,13,09,03,16.40
2016,07,13,09,04,16.40
2016,07,13,09,05,16.40
2016,07,13,09,06,16.40
2016,07,13,09,07,16.40
2016,07,13,09,08,16.40
2016,07,13,09,09,16.30
2016,07,13,09,10,16.30
2016,07,13,09,11,16.30
2016,07,13,09,12,16.20
2016,07,13,09,13,16.30
2016,07,13,09,14,16.30
2016,07,13,09,15,16.30
2016,07,13,09,16,16.40
2016,07,13,09,17,16.50
2016,07,13,09,18,16.50
2016,07,13,09,19,16.50
2016,07,13,09,20,16.60
2016,07,13,09,21,16.60
2016,07,13,09,22,16.60
2016,07,13,09,23,16.60
2016,07,13,09,24,16.60
2016,07,13,09,25,16.60
2016,07,13,09,26,16.60
2016,07,13,09,27,16.50
2016,07,13,09,28,16.50
2016,07,13,09,29,16.50
2016,07,13,09,30,16.50
2016,07,13,09,31,16.50
2016,07,13,09,32,16.50
2016,07,13,09,33,16.50
2016,07,13,09,34,16.50
2016,07,13,09,35,16.50
2016,07,13,09,36,16.60
2016,07,13,09,37,16.60
2016,07,13,09,38,16.70
2016,07,13,09,39,16.70
2016,07,13,09,40,16.80
2016,07,13,09,41,16.80
2016,07,13,09,42,16.90
2016,07,13,09,43,17.00
2016,07,13,09,44,17.10
2016,07,13,09,45,17.20
2016,07,13,09,46,17.20
2016,07,13,09,47,17.40
2016,07,13,09,48,17.40
2016,07,13,09,49,17.50
2016,07,13,09,50,17.60
2016,07,13,09,51,17.60
2016,07,13,09,52,17.70
2016,07,13,09,53,17.60
2016,07,13,09,54,17.60
2016,07,13,09,55,17.60
2016,07,13,09,56,17.60
2016,07,13,09,57,17.60
2016,07,13,09,58,17.60
2016,07,13,09,59,17.60
2016,07,13,10,00,17.60
2016,07,13,10,01,17.60
2016,07,13,10,02,17.70
2016,07,13,10,03,17.70
2016,07,13,10,04,17.80
2016,07,13,10,05,17.90
2016,07,13,10,06,18.00
2016,07,13,10,07,18.10
2016,07,13,10,08,18.20
2016,07,13,10,09,18.30
2016,07,13,10,10,18.40
2016,07,13,10,11,18.60
2016,07,13,10,12,18.70
2016,07,13,10,13,18.70
2016,07,13,10,14,18.80
2016,07,13,10,15,18.90
2016,07,13,10,16,18.90
2016,07,13,10,17,19.00
2016,07,13,10,18,19.10
2016,07,13,10,19,19.10
2016,07,13,10,20,19.10
2016,07,13,10,21,19.10
2016,07,13,10,22,19.10
2016,07,13,10,23,18.90
2016,07,13,10,24,18.80
2016,07,13,10,25,18.70
2016,07,13,10,26,18.70
2016,07,13,10,27,18.60
2016,07,13,10,28,18.60
2016,07,13,10,29,18.60
2016,07,13,10,30,18.50
2016,07,13,10,31,18.50
2016,07,13,10,32,18.50
2016,07,13,10,33,18.40
2016,07,13,10,34,18.40
2016,07,13,10,35,18.50
2016,07,13,10,36,18.50
2016,07,13,10,37,18.60
2016,07,13,10,38,18.60
2016,07,13,10,39,18.60
2016,07,13,10,40,18.60
2016,07,13,10,41,18.60
2016,07,13,10,42,18.60
2016,07,13,10,43,18.60
2016,07,13,10,44,18.60
2016,07,13,10,45,18.60
2016,07,13,10,46,18.60
2016,07,13,10,47,18.60
2016,07,13,10,48,18.70
2016,07,13,10,49,18.70
2016,07,13,10,50,18.80
2016,07,13,10,51,18.80
2016,07,13,10,52,18.80
2016,07,13,10,53,18.80
2016,07,13,10,54,18.80
2016,07,13,10,55,18.80
2016,07,13,10,56,18.80
2016,07,13,10,57,18.80
2016,07,13,10,58,18.80
2016,07,13,10,59,18.70
2016,07,13,11,00,18.70
2016,07,13,11,01,18.70
2016,07,13,11,02,18.70
2016,07,13,11,03,18.70
2016,07,13,11,04,18.60
2016,07,13,11,05,18.60
2016,07,13,11,06,18.60
2016,07,13,11,07,18.60
2016,07,13,11,08,18.70
2016,07,13,11,09,18.70
2016,07,13,11,10,18.70
2016,07,13,11,11,18.70
2016,07,13,11,12,18.70
2016,07,13,11,13,18.70
2016,07,13,11,14,18.80
2016,07,13,11,15,18.80
2016,07,13,11,16,18.90
2016,07,13,11,17,19.00
2016,07,13,11,18,19.10
2016,07,13,11,19,19.20
2016,07,13,11,20,19.30
2016,07,13,11,21,19.30
2016,07,13,11,22,19.40
2016,07,13,11,23,19.40
2016,07,13,11,24,19.40
2016,07,13,11,25,19.50
2016,07,13,11,26,19.50
2016,07,13,11,27,19.50
2016,07,13,11,28,19.60
2016,07,13,11,29,19.60
2016,07,13,11,30,19.60
2016,07,13,11,31,19.60
2016,07,13,11,32,19.60
2016,07,13,11,33,19.70
2016,07,13,11,34,19.80
2016,07,13,11,35,19.80
2016,07,13,11,36,19.80
2016,07,13,11,37,19.70
2016,07,13,11,38,19.60
2016,07,13,11,39,19.50
2016,07,13,11,40,19.40
2016,07,13,11,41,19.40
2016,07,13,11,42,19.40
2016,07,13,11,43,19.40
2016,07,13,11,44,19.50
2016,07,13,11,45,19.50
2016,07,13,11,46,19.50
2016,07,13,11,47,19.60
2016,07,13,11,48,19.60
2016,07,13,11,49,19.60
2016,07,13,11,50,19.60
2016,07,13,11,51,19.60
2016,07,13,11,52,19.60
2016,07,13,11,53,19.60
2016,07,13,11,54,19.60
2016,07,13,11,55,19.70
2016,07,13,11,56,19.90
2016,07,13,11,57,20.10
2016,07,13,11,58,20.20
2016,07,13,11,59,20.30
2016,07,13,12,00,20.30
2016,07,13,12,01,20.30
2016,07,13,12,02,20.30
2016,07,13,12,03,20.30
2016,07,13,12,04,20.30
2016,07,13,12,05,20.30
2016,07,13,12,06,20.40
2016,07,13,12,07,20.40
2016,07,13,12,08,20.40
2016,07,13,12,09,20.40
2016,07,13,12,10,20.30
2016,07,13,12,11,20.20
2016,07,13,12,12,20.20
2016,07,13,12,13,20.10
2016,07,13,12,14,20.10
2016,07,13,12,15,20.10
2016,07,13,12,16,20.10
2016,07,13,12,17,20.20
2016,07,13,12,18,20.20
2016,07,13,12,19,20.30
2016,07,13,12,20,20.30
2016,07,13,12,21,20.30
2016,07,13,12,22,20.30
2016,07,13,12,23,20.20
2016,07,13,12,24,20.20
2016,07,13,12,25,20.30
2016,07,13,12,26,20.40
2016,07,13,12,27,20.40
2016,07,13,12,28,20.50
2016,07,13,12,29,20.60
2016,07,13,12,30,20.70
2016,07,13,12,31,20.80
2016,07,13,12,32,20.90
2016,07,13,12,33,21.00
2016,07,13,12,34,21.10
2016,07,13,12,35,21.20
2016,07,13,12,36,21.20
2016,07,13,12,37,21.20
2016,07,13,12,38,21.20
2016,07,13,12,39,21.20
2016,07,13,12,40,21.20
2016,07,13,12,41,21.20
2016,07,13,12,42,21.20
2016,07,13,12,43,21.30
2016,07,13,12,44,21.40
2016,07,13,12,45,21.30
2016,07,13,12,46,21.20
2016,07,13,12,47,21.20
2016,07,13,12,48,21.20
2016,07,13,12,49,21.20
2016,07,13,12,50,21.30
2016,07,13,12,51,21.30
2016,07,13,12,52,21.40
2016,07,13,12,53,21.40
2016,07,13,12,54,21.30
2016,07,13,12,55,21.40
2016,07,13,12,56,21.40
2016,07,13,12,57,21.30
2016,07,13,12,58,21.20
2016,07,13,12,59,21.20
2016,07,13,13,00,21.10
2016,07,13,13,01,21.00
2016,07,13,13,02,21.00
2016,07,13,13,03,21.10
2016,07,13,13,04,21.10
2016,07,13,13,05,21.20
2016,07,13,13,06,21.20
2016,07,13,13,07,21.20
2016,07,13,13,08,21.20
2016,07,13,13,09,21.20
2016,07,13,13,10,21.20
2016,07,13,13,11,21.30
2016,07,13,13,12,21.40
2016,07,13,13,13,21.50
2016,07,13,13,14,21.50
2016,07,13,13,15,21.70
2016,07,13,13,16,21.70
2016,07,13,13,17,21.60
2016,07,13,13,18,21.60
2016,07,13,13,19,21.40
2016,07,13,13,20,21.40
2016,07,13,13,21,21.30
2016,07,13,13,22,21.10
2016,07,13,13,23,21.10
2016,07,13,13,24,21.00
2016,07,13,13,25,20.80
2016,07,13,13,26,20.70
2016,07,13,13,27,20.70
2016,07,13,13,28,20.70
2016,07,13,13,29,20.70
2016,07,13,13,30,20.60
2016,07,13,13,31,20.50
2016,07,13,13,32,20.50
2016,07,13,13,33,20.50
2016,07,13,13,34,20.40
2016,07,13,13,35,20.40
2016,07,13,13,36,20.40
2016,07,13,13,37,20.40
2016,07,13,13,38,20.40
2016,07,13,13,39,20.40
2016,07,13,13,40,20.40
2016,07,13,13,41,20.50
2016,07,13,13,42,20.50
2016,07,13,13,43,20.40
2016,07,13,13,44,20.40
2016,07,13,13,45,20.30
2016,07,13,13,46,20.30
2016,07,13,13,47,20.20
2016,07,13,13,48,20.30
2016,07,13,13,49,20.30
2016,07,13,13,50,20.30
2016,07,13,13,51,20.40
2016,07,13,13,52,20.40
2016,07,13,13,53,20.50
2016,07,13,13,54,20.50
2016,07,13,13,55,20.70
2016,07,13,13,56,20.80
2016,07,13,13,57,20.90
2016,07,13,13,58,21.10
2016,07,13,13,59,21.30
2016,07,13,14,00,21.30
2016,07,13,14,01,21.40
2016,07,13,14,02,21.40
2016,07,13,14,03,21.30
2016,07,13,14,04,21.30
2016,07,13,14,05,21.30
2016,07,13,14,06,21.40
2016,07,13,14,07,21.50
2016,07,13,14,08,21.50
2016,07,13,14,09,21.60
2016,07,13,14,10,21.60
2016,07,13,14,11,21.50
2016,07,13,14,12,21.50
2016,07,13,14,13,21.40
2016,07,13,14,14,21.30
2016,07,13,14,15,21.30
2016,07,13,14,16,21.30
2016,07,13,14,17,21.20
2016,07,13,14,18,21.20
2016,07,13,14,19,21.30
2016,07,13,14,20,21.30
2016,07,13,14,21,21.50
2016,07,13,14,22,21.50
2016,07,13,14,23,21.60
2016,07,13,14,24,21.70
2016,07,13,14,25,21.80
2016,07,13,14,26,21.80
2016,07,13,14,27,21.80
2016,07,13,14,28,21.80
2016,07,13,14,29,21.80
2016,07,13,14,30,21.70
2016,07,13,14,31,21.70
2016,07,13,14,32,21.70
2016,07,13,14,33,21.70
2016,07,13,14,34,21.70
2016,07,13,14,35,21.60
2016,07,13,14,36,21.60
2016,07,13,14,37,21.70
2016,07,13,14,38,21.70
2016,07,13,14,39,21.70
2016,07,13,14,40,21.80
2016,07,13,14,41,21.80
2016,07,13,14,42,21.80
2016,07,13,14,43,21.60
2016,07,13,14,44,21.50
2016,07,13,14,45,21.30
2016,07,13,14,46,21.20
2016,07,13,14,47,21.20
2016,07,13,14,48,21.10
2016,07,13,14,49,21.10
2016,07,13,14,50,21.10
2016,07,13,14,51,21.10
2016,07,13,14,52,21.20
2016,07,13,14,53,21.30
2016,07,13,14,54,21.30
2016,07,13,14,55,21.40
2016,07,13,14,56,21.50
2016,07,13,14,57,21.50
2016,07,13,14,58,21.60
2016,07,13,14,59,21.60
2016,07,13,15,00,21.60
2016,07,13,15,01,21.40
2016,07,13,15,02,21.30
2016,07,13,15,03,21.20
2016,07,13,15,04,21.10
2016,07,13,15,05,21.10
2016,07,13,15,06,21.10
2016,07,13,15,07,21.20
2016,07,13,15,08,21.30
2016,07,13,15,09,21.40
2016,07,13,15,10,21.50
2016,07,13,15,11,21.50
2016,07,13,15,12,21.50
2016,07,13,15,13,21.50
2016,07,13,15,14,21.50
2016,07,13,15,15,21.40
2016,07,13,15,16,21.40
2016,07,13,15,17,21.50
2016,07,13,15,18,21.50
2016,07,13,15,19,21.60
2016,07,13,15,20,21.60
2016,07,13,15,21,21.70
2016,07,13,15,22,21.80
2016,07,13,15,23,21.90
2016,07,13,15,24,21.90
2016,07,13,15,25,21.90
2016,07,13,15,26,21.90
2016,07,13,15,27,21.90
2016,07,13,15,28,21.90
2016,07,13,15,29,21.90
2016,07,13,15,30,21.80
2016,07,13,15,31,21.70
2016,07,13,15,32,21.60
2016,07,13,15,33,21.50
2016,07,13,15,34,21.50
2016,07,13,15,35,21.40
2016,07,13,15,36,21.30
2016,07,13,15,37,21.30
2016,07,13,15,38,21.20
2016,07,13,15,39,21.20
2016,07,13,15,40,21.20
2016,07,13,15,41,21.30
2016,07,13,15,42,21.30
2016,07,13,15,43,21.40
2016,07,13,15,44,21.50
2016,07,13,15,45,21.60
2016,07,13,15,46,21.70
2016,07,13,15,47,21.80
2016,07,13,15,48,21.80
2016,07,13,15,49,21.70
2016,07,13,15,50,21.70
2016,07,13,15,51,21.80
2016,07,13,15,52,21.80
2016,07,13,15,53,21.70
2016,07,13,15,54,21.70
2016,07,13,15,55,21.70
2016,07,13,15,56,21.70
2016,07,13,15,57,21.60
2016,07,13,15,58,21.70
2016,07,13,15,59,21.70
2016,07,13,16,00,21.70
2016,07,13,16,01,21.80
2016,07,13,16,02,21.80
2016,07,13,16,03,21.80
2016,07,13,16,04,21.80
2016,07,13,16,05,21.80
2016,07,13,16,06,21.80
2016,07,13,16,07,21.80
2016,07,13,16,08,21.90
2016,07,13,16,09,22.00
2016,07,13,16,10,22.00
2016,07,13,16,11,22.00
2016,07,13,16,12,21.90
2016,07,13,16,13,21.90
2016,07,13,16,14,21.80
2016,07,13,16,15,21.80
2016,07,13,16,16,21.80
2016,07,13,16,17,21.80
2016,07,13,16,18,21.70
2016,07,13,16,19,21.70
2016,07,13,16,20,21.70
2016,07,13,16,21,21.60
2016,07,13,16,22,21.70
2016,07,13,16,23,21.70
2016,07,13,16,24,21.80
2016,07,13,16,25,21.80
2016,07,13,16,26,21.80
2016,07,13,16,27,21.90
2016,07,13,16,28,21.90
2016,07,13,16,29,22.00
2016,07,13,16,30,22.10
2016,07,13,16,31,22.10
2016,07,13,16,32,22.00
2016,07,13,16,33,21.80
2016,07,13,16,34,21.80
2016,07,13,16,35,21.80
2016,07,13,16,36,21.80
2016,07,13,16,37,21.70
2016,07,13,16,38,21.60
2016,07,13,16,39,21.60
2016,07,13,16,40,21.50
2016,07,13,16,41,21.50
2016,07,13,16,42,21.50
2016,07,13,16,43,21.40
2016,07,13,16,44,21.40
2016,07,13,16,45,21.30
2016,07,13,16,46,21.30
2016,07,13,16,47,21.30
2016,07,13,16,48,21.20
2016,07,13,16,49,21.20
2016,07,13,16,50,21.20
2016,07,13,16,51,21.20
2016,07,13,16,52,21.20
2016,07,13,16,53,21.30
2016,07,13,16,54,21.30
2016,07,13,16,55,21.40
2016,07,13,16,56,21.50
2016,07,13,16,57,21.60
2016,07,13,16,58,21.60
2016,07,13,16,59,21.60
2016,07,13,17,00,21.60
2016,07,13,17,01,21.70
2016,07,13,17,02,21.80
2016,07,13,17,03,21.80
2016,07,13,17,04,21.80
2016,07,13,17,05,21.70
2016,07,13,17,06,21.70
2016,07,13,17,07,21.70
2016,07,13,17,08,21.60
2016,07,13,17,09,21.70
2016,07,13,17,10,21.70
2016,07,13,17,11,21.70
2016,07,13,17,12,21.80
2016,07,13,17,13,21.80
2016,07,13,17,14,21.90
2016,07,13,17,15,21.90
2016,07,13,17,16,21.90
2016,07,13,17,17,21.90
2016,07,13,17,18,21.90
2016,07,13,17,19,21.90